This is the latest recevied weather packets stored in our database for station/object K7TUS-6. If no packets are shown the sender has not sent any weather packets the latest 10 day(s).
| Time | Temp. | Humidity | Pressure | Rain* | Wind** | Luminosity | Snow |
|---|---|---|---|---|---|---|---|
| 1777773306 | 14.44° C | 6% | 985.3 hPa | - | - | - | - |
| 1777773005 | 14.44° C | 6% | 985.8 hPa | - | - | - | - |
| 1777772704 | 14.44° C | 7% | 984.7 hPa | - | - | - | - |
| 1777772404 | 14.44° C | 6% | 985 hPa | - | - | - | - |
| 1777772103 | 14.44° C | 7% | 984.6 hPa | - | - | - | - |
| 1777771809 | 14.44° C | 6% | 984.9 hPa | - | - | - | - |
| 1777771508 | 15° C | 6% | 984.2 hPa | - | - | - | - |
| 1777771208 | 15.56° C | 5% | 984.7 hPa | - | - | - | - |
| 1777770907 | 15.56° C | 5% | 985.1 hPa | - | - | - | - |
| 1777770606 | 15.56° C | 5% | 984.9 hPa | - | - | - | - |
| 1777770306 | 15.56° C | 5% | 984.4 hPa | - | - | - | - |
| 1777770005 | 16.11° C | 5% | 985.2 hPa | - | - | - | - |
| 1777769404 | 16.11° C | 4% | 985 hPa | - | - | - | - |
| 1777769104 | 16.67° C | 4% | 985.7 hPa | - | - | - | - |
| 1777768509 | 17.22° C | 2% | 985.7 hPa | - | - | - | - |
| 1777768208 | 16.67° C | 2% | 985 hPa | - | - | - | - |
| 1777767608 | 16.67° C | 3% | 984.9 hPa | - | - | - | - |
| 1777767307 | 17.22° C | 3% | 984.7 hPa | - | - | - | - |
| 1777767006 | 17.22° C | 3% | 984.7 hPa | - | - | - | - |
| 1777766406 | 17.78° C | 1% | 985.2 hPa | - | - | - | - |
| 1777766105 | 18.33° C | 1% | 985.4 hPa | - | - | - | - |
| 1777765805 | 17.78° C | 2% | 985.9 hPa | - | - | - | - |
| 1777765504 | 18.33° C | 1% | 985.1 hPa | - | - | - | - |
| 1777765203 | 18.33° C | 1% | 985.4 hPa | - | - | - | - |
| 1777764903 | 18.33° C | 2% | 985.3 hPa | - | - | - | - |
* Rain since midnight (hover to see other rain measurements)
** Current wind speed in m/s (hover to see current wind gust speed)